#timestamp,LO_Frequency,Hit,StdDev 
1514368815.0,286046999.0,N
1514368815.9,286046999.0,N
1514368835.7,286046997.7,N
1514368855.6,286046995.5,N
1514368875.4,286046996.1,N
1514368895.3,286046995.8,N
1514368915.1,286046996.0,N
1514368916.0,286046996.0,N
1514368935.8,286046995.8,N
1514368955.7,286046993.7,N
1514368975.5,286046998.0,N
1514368995.4,286046998.0,N
1514369015.2,286046996.5,N
1514369035.0,286046996.7,N
1514369035.9,286046996.7,N
1514369055.8,286046997.5,N
1514369075.6,286046995.7,N
1514369095.4,286046995.7,N
1514369115.3,286046995.0,N
1514369135.1,286046995.7,N
1514369155.9,286046997.8,N
1514369175.7,286046997.3,N
1514369195.5,286046997.4,N
1514369215.4,286046996.1,N
1514369235.2,286046996.1,N
1514369255.1,286046993.4,Y
1514369256.0,286046993.4,P
1514369275.8,286046999.4,N
1514369295.6,286046999.0,N
1514369315.5,286046999.4,N
1514369335.3,286046999.4,N
1514369355.2,286046998.1,N
1514369375.9,286046998.1,N
1514369395.7,286046998.1,N
1514369415.6,286047001.2,N
1514369435.4,286046999.7,N
1514369455.2,286047002.8,N
1514369475.1,286047001.0,N
1514369476.0,286047001.0,N
1514369495.8,286046998.3,N
1514369515.7,286046998.4,N
1514369535.5,286046999.3,N
1514369555.3,286046997.3,N
1514369575.2,286046994.9,N
1514369595.0,286046997.6,N
1514369595.9,286046997.6,N
1514369615.8,286046998.0,N
1514369635.6,286046997.3,N
1514369655.4,286046996.8,N
1514369675.3,286046997.3,N
1514369695.1,286046996.6,N
1514369715.8,286046998.5,N
1514369735.7,286046996.6,N
1514369755.5,286046999.4,N
1514369775.4,286046999.6,N
1514369795.2,286047001.1,N
1514369815.0,286046998.4,N
1514369815.9,286046998.4,N
1514369835.8,286046998.2,N
1514369855.6,286046998.6,N
1514369875.4,286047001.2,N
1514369895.3,286047000.9,N
1514369915.1,286046998.1,N
1514369935.9,286046999.3,N
1514369955.7,286046998.5,N
1514369975.5,286046998.9,N
1514369995.4,286047000.8,N
1514370015.2,286046998.1,N
1514370035.0,286047000.4,N
1514370036.0,286047000.4,N
1514370055.8,286046998.2,N
1514370075.6,286046999.1,N
1514370095.5,286046998.8,N
1514370115.3,286046998.5,N
1514370135.1,286046998.3,N
1514370155.9,286046998.3,N
1514370175.7,286046999.2,N
1514370195.6,286046998.9,N
1514370215.4,286046999.1,N
1514370235.2,286046997.8,N
1514370255.1,286046997.7,N
1514370256.0,286046997.7,N
1514370275.8,286046996.9,N
1514370325.7,286046999.9,E
1514370335.6,286046999.9,N
1514370355.4,286046999.7,P
1514370375.3,286047002.3,P
1514370395.1,286047000.4,N
1514370415.9,286047001.8,N
1514370435.7,286047000.5,N
1514370455.5,286047002.7,N
1514370475.4,286047002.3,N
1514370495.2,286047004.1,Y
1514370515.0,286046999.8,P
1514370516.0,286046999.8,N
1514370535.8,286046998.1,N
1514370555.6,286047000.5,N
1514370575.5,286047001.6,N
1514370595.3,286047001.3,N
1514370615.1,286047004.2,Y
1514370635.9,286047003.9,P
1514370655.7,286047003.8,N
1514370675.6,286047003.3,N
1514370695.4,286047001.3,N
1514370715.2,286047004.1,N
1514370735.1,286047000.2,N
1514370736.0,286047000.2,N
1514370755.8,286047002.7,N
1514370775.7,286047000.1,N
1514370795.5,286046999.9,N
1514370815.3,286047002.6,N
1514370835.2,286047000.1,N
1514370855.0,286047002.8,N
1514370855.9,286047002.8,N
1514370875.7,286047002.5,N
1514370895.6,286046999.7,N
1514370915.4,286047002.6,N
1514370935.3,286047002.2,N
1514370955.1,286047001.5,N
1514370956.0,286047001.5,N
1514370975.8,286047002.5,N
1514370995.7,286047002.4,N
1514371015.5,286047002.8,N
1514371035.3,286047002.2,N
1514371055.2,286047004.3,Y
1514371075.0,286047000.1,P
1514371075.9,286047000.1,N
1514371095.8,286047002.6,N
1514371115.6,286047001.9,N
1514371135.4,286047002.5,N
1514371155.3,286047002.3,N
1514371175.1,286047002.4,N
1514371195.9,286047001.8,N
1514371215.7,286047000.0,N
1514371235.5,286047002.5,N
1514371255.4,286046999.7,N
1514371275.2,286047002.2,N
1514371295.0,286046998.2,N
1514371296.0,286046998.2,N
1514371315.8,286047000.9,N
1514371335.6,286046998.6,N
1514371355.5,286047000.3,N
1514371375.3,286046999.4,N
1514371395.1,286046998.6,N
1514371415.9,286047000.5,N
1514371435.7,286047000.6,N
1514371455.6,286047000.4,N
1514371475.4,286046999.7,N
1514371495.2,286047002.8,N
1514371515.1,286047002.1,N
1514371516.0,286047002.1,N
1514371535.8,286047002.6,N
1514371555.7,286047001.7,N
1514371575.5,286047002.5,N
1514371595.3,286046999.7,N
1514371615.2,286047002.5,N
1514371635.0,286047004.4,N
1514371635.9,286047004.4,N
1514371655.7,286047002.2,N
1514371675.6,286047001.5,N
1514371695.4,286047004.1,N
1514371715.3,286047003.4,N
1514371735.1,286047002.9,N
1514371736.0,286047002.9,N
1514371755.8,286047003.2,N
1514371775.7,286047003.7,N
1514371795.5,286047003.7,N
1514371815.4,286047003.6,N
1514371835.2,286047004.2,N
1514371855.0,286047004.4,N
1514371855.9,286047004.4,N
1514371875.8,286047003.9,N
1514371895.6,286047001.3,N
1514371915.4,286047001.9,N
1514371935.3,286047006.0,Y
1514371955.1,286047002.7,P
1514371975.9,286047001.9,P
1514371995.7,286047004.0,P
1514372015.5,286047001.7,N
1514372035.4,286047000.2,N
1514372055.2,286046999.8,N
1514372075.1,286047002.0,N
1514372076.0,286047002.0,N
1514372095.8,286047002.3,N
1514372115.6,286047001.1,N
1514372135.5,286046998.9,N
1514372155.3,286047001.0,N
1514372175.1,286046998.7,N
1514372195.9,286047000.6,N
1514372215.7,286047000.0,N
1514372235.6,286047000.2,N
1514372255.4,286047002.1,N
1514372275.2,286047002.1,N
1514372295.1,286047003.8,N
1514372296.0,286047003.8,N
1514372315.8,286047001.6,N
1514372335.7,286047001.8,N
1514372355.5,286047000.3,N
1514372375.3,286047002.8,N
1514372395.2,286046998.5,N
